Regional Weather Roundup
Issued by NWS Charleston, SC

Current Version | Previous Version | Text Only | Print | Product List | Glossary Off
Versions: 1 2 3 4 5 6 7 8 9 10 11 12 13 14 15 16 17 18 19 20 21 22 23 24 25 26 27 28 29 30 31 32 33 34 35 36 37 38 39 40 41 42 43 44 45 46 47 48 49 50
000 ASUS42 KCHS 180625 RWRCHS REGIONAL WEATHER ROUNDUP NATIONAL WEATHER SERVICE CHARLESTON SC 200 AM EDT THU SEP 18 2014 NOTE: "FAIR" INDICATES FEW OR NO CLOUDS BELOW 12,000 FEET WITH NO SIGNIFICANT WEATHER AND/OR OBSTRUCTIONS TO VISIBILITY. NOT ALL STATIONS ARE QUALITY CONTROLLED BY THE NATIONAL WEATHER SERVICE. USE DATA WITH CAUTION...ESPECIALLY DEWPOINT OBSERVATIONS. SCZ027-030-031-034>040-042>050-180700- ...SOUTH CAROLINA... CITY SKY/WX TMP DP RH WIND PRES REMARKS N CHARLESTON PTCLDY 73 68 84 CALM 29.90F 6HR MIN TEMP: 71; 6HR MAX TEMP: 75; WATERFRONT PRK N/A 75 N/A N/A N5 N/A FORT JOHNSON NOT AVBL MOUNT PLEASANT FAIR 70 70 100 CALM 29.90S FOG JOHNS ISLAND MOCLDY 72 72 100 CALM 29.91S PINOPOLIS N/A 75 72 88 SW2 29.82F MONCKS CORNER N/A 68 68 100 CALM 29.91S FOG SUMMERVILLE FAIR 68 68 100 CALM 29.91F BEAUFORT MCAS MOCLDY 72 70 93 N3 29.91S 6HR MIN TEMP: 71; 6HR MAX TEMP: 79; 6HR PCP: 0.11; BEAUFORT ARPT CLOUDY 72 72 100 CALM 29.90S HILTON HEAD IS MOCLDY 70 70 100 CALM 29.91S GEORGETOWN NOT AVBL WALTERBORO PTCLDY 68 N/A N/A CALM 29.91F ORANGEBURG CLEAR 69 66 90 NE3 29.92F 6HR MIN TEMP: 69; 6HR MAX TEMP: 70; 6HR PCP: 0.08; BARNWELL FAIR 66 66 100 CALM 29.92F AIKEN FAIR 66 66 100 CALM 29.96S FOG MANNING FAIR 68 N/A N/A CALM 29.91F KINGSTREE NOT AVBL COLUMBIA PTCLDY 70 66 87 CALM 29.92F 6HR MIN TEMP: 68; 6HR MAX TEMP: 75; SUMTER PTCLDY 69 65 86 CALM 29.91F 6HR MIN TEMP: 69; 6HR MAX TEMP: 73; FLORENCE MOCLDY 70 68 93 CALM 29.92S 6HR MIN TEMP: 69; 6HR MAX TEMP: 74; MYRTLE BEACH CLOUDY 73 66 78 N5 29.90F N MYRTLE BEACH CLOUDY 72 68 87 NE3 29.90S 6HR MIN TEMP: 71; 6HR MAX TEMP: 77; $$ GAZ063-065-086>088-099>101-113>116-118-119-134-136>141-150-180700- ...GEORGIA... CITY SKY/WX TMP DP RH WIND PRES REMARKS SAVANNAH ARPT PTCLDY 73 68 84 CALM 29.88F 6HR MIN TEMP: 72; 6HR MAX TEMP: 76; 6HR PCP: 0.23; HUNTER AAF PTCLDY 72 71 95 N2 29.87F 6HR MIN TEMP: 72; 6HR MAX TEMP: 79; 6HR PCP: 0.07; FORT STEWART CLOUDY 72 70 94 CALM 29.88F 6HR MIN TEMP: 72; 6HR MAX TEMP: 76; 6HR PCP: 0.02; STATESBORO NOT AVBL SYLVANIA FOG 70 70 99 CALM 29.90F VSB 1/2 CLAXTON FAIR 70 70 100 CALM 29.90F THOMSON PTCLDY 70 70 100 CALM 29.98S AUGUSTA-BUSH PTCLDY 67 67 100 N5 29.91S FOG 6HR MIN TEMP: 66; 6HR MAX TEMP: 73; 6HR PCP: TRACE; AUGUSTA-DANIEL CLOUDY 70 69 97 N6 29.94S FOG SWAINSBORO FAIR 72 72 100 CALM 29.91F VIDALIA CLEAR 72 70 94 E3 29.89F ALMA CLEAR 70 68 93 CALM 29.89F 6HR MIN TEMP: 69; 6HR MAX TEMP: 80; WAYCROSS CLEAR 72 72 98 CALM 29.88F JESUP FAIR 72 70 94 CALM 29.89F BRUNSWICK CLEAR 70 68 94 CALM 29.89F THUNDER SAINT SIMONS PTCLDY 74 71 91 CALM 29.88F 6HR MIN TEMP: 74; 6HR MAX TEMP: 81; 6HR PCP: TRACE; $$ SCZ027-028-034-036>038-045-046-048>050-GAZ119-141-180700- ...LAKE AND SUPPLEMENTAL COASTAL OBSERVATIONS... STATION/POSITION TIME TEMP WIND PRES WAVE SWELL AIR SEA DIR/SP/G HT/PER HT/PER/DIR (UTC) (F) (DEG/KT/KT) (MB) (FT/S) (FT/S/D) UPR LAKE MARION NOT AVBL WINYAH BAY 0600 71 300/ 4 1012.0S LAKE MURRAY 0500 69 360/ 2/ 4 1013.2F ACE BASIN NERRS 0600 70 310/ 3 1013.0S FORT PULASKI 0600 74 350/ 4/ 5 1012.2F SAPELO ISLAND 0500 73 70/ 2 1013.0F $$ ANZ835-935-AMZ111-154-330-350-352-354-374-450-454-472-180700- ...C-MAN AND BUOY OBSERVATIONS... STATION/POSITION TIME TEMP WIND PRES WAVE SWELL AIR SEA DIR/SP/G HT/PER HT/PER/DIR (UTC) (F) (DEG/KT/KT) (MB) (FT/S) (FT/S/D) FOLLY BEACH CMAN 0600 74 320/ 2/ 3 1012.8F BUOY 41004 0600 80 83 330/ 6/ 10 1011.8F 4/13 3/13 BUOY 41008 0600 76 84 350/ 10/ 14 1012.0F 3/14 3/ 90/14 5E ST. MARYS GA 0600 84 N/A 3/13 3/110/13 FRYING PAN BUOY NOT AVBL BUOY 41025 0600 73 40/ 17/ 19 1011.9F 6/ 7 3/ 90/11 CAPE LOOKOUT NC 0600 75 40/ 15/ 17 1012.3F BUOY 41002 0545 78 82 350/ 8/ 10 1011.0F 5/13 5/ 80/13 BUOY 41010 0600 81 85 350/ 8/ 10 1011.7F 4/11 5/ 60/11 BUOY 41012 NOT AVBL ST AUGUSTINE FL 0600 75 260/ 5/ 7 1012.9F CAPERS NEARSHORE 0500 77 10/ 10/ 12 N/A FRIPP NEARSHORE NOT AVBL $$

USA.gov is the U.S. government's official web portal to all federal, state and local government web resources and services.